Regional Weather Roundup
Issued by NWS Albany, NY

Home | Current Version | Previous Version | Graphics & Text | Print | Product List | Glossary On
Versions: 1 2 3 4 5 6 7 8 9 10 11 12 13 14 15 16 17 18 19 20 21 22 23 24 25 26 27 28 29 30 31 32 33 34 35 36 37 38 39 40 41 42 43 44 45 46 47 48 49 50
000
ASUS41 KALY 230010
RWRALY

NEW YORK STATE HOURLY WEATHER ROUNDUP
NATIONAL WEATHER SERVICE ALBANY NY
700 PM EST SAT NOV 22 2014

NOTE: "FAIR" INDICATES FEW OR NO CLOUDS BELOW 12,000 FEET WITH NO
SIGNIFICANT WEATHER AND/OR NO OBSTRUCTIONS TO VISIBILITY.

NYZ032-033-038>043-046>054-057>066-NYZ062>081-230100-
EAST


CITY           SKY/WX    TMP DP  RH WIND       PRES   REMARKS
ALBANY         CLOUDY    39  14  36 S10G21    30.09F WCI  32
GLENS FALLS    CLOUDY    35  21  56 SW7       30.06F WCI  29
POUGHKEEPSIE   CLOUDY    43  14  31 SW7       30.19F
NEWBURGH       CLOUDY    41  16  36 SW12      30.20S
MONTGOMERY     CLOUDY    41  14  33 SW12      30.18F
WHITE PLAINS   CLOUDY    41  17  38 VRB5      30.22S
ISLIP          MOCLDY    43  22  43 SW14G25   30.23F
NEW YORK CITY  CLOUDY    43  18  36 SW12G21   30.23F
CENTRAL PARK   MOCLDY    43  17  35 SW7       30.25F
$$

NYZ005>009-017-018-044>046-055-056-230100-
CENTRAL


CITY           SKY/WX    TMP DP  RH WIND       PRES   REMARKS
FULTON         CLOUDY    40  35  83 S7        30.00F
SYRACUSE       CLOUDY    44  38  79 S12       30.02S
ROME           LGT RAIN  34  31  88 E8        30.05F WCI  27
ELMIRA         CLOUDY    41  32  70 W15       30.09F
BINGHAMTON     LGT RAIN  36  28  73 SW16G26   30.07F WCI  26
MONTICELLO     CLOUDY    36  16  44 SW8       30.16S WCI  29
$$

NYZ026>034-041>043-230100-
NORTH


CITY           SKY/WX    TMP DP  RH WIND       PRES   REMARKS
WATERTOWN      CLOUDY    41  33  73 S12G18    29.95F
FORT DRUM      NOT AVBL
MASSENA        LGT RAIN  37  33  85 SW15G28   29.91S WCI  28
SARANAC LAKE   CLOUDY    34  31  88 SW17      29.90S FOG     WCI  23
PLATTSBURGH    CLOUDY    35  22  58 S9        29.93F WCI  28
$$

NYZ001>004-010>016-019>021-230100-
WEST


CITY           SKY/WX    TMP DP  RH WIND       PRES   REMARKS
NIAGARA FALLS  CLOUDY    46  40  79 SW18G29   29.97S
BUFFALO        CLOUDY    40  37  89 SW12      29.98S WCI  33
DUNKIRK        CLOUDY    44  39  82 S16G24    30.01S
JAMESTOWN      CLOUDY    37  34  87 S13       30.04S WCI  29
WELLSVILLE     CLOUDY    39  35  86 SW15G21   30.03F WCI  31
ROCHESTER      CLOUDY    42  39  89 SW17      29.97S
PENN YAN       LGT RAIN  41  36  82 SW15G23   30.01F
$$

             KEY
       WCI = WIND CHILL INDEX
       VSB = VISIBILITY
       HX  = HEAT INDEX
$$



USA.gov is the U.S. government's official web portal to all federal, state and local government web resources and services.